Starlink 32864

operational
NORAD ID: 62862 Int'l Des: 2025-022 Owner: SPXS Country: US Constellation: starlink
LEOCIRCULAR

关于 Starlink 32864

正在加载描述...

实时位置

正在加载3D地球...

即将过境

高度历史

Altitude vs Time

uPlot chart will show altitude changes over time

两行轨道根数

1 62862U 25022J 25308.49777123 .00007358 00000-0 26032-3 0 9992
2 62862 53.1594 351.0381 0001273 90.0479 270.0668 15.30199290 42730
Epoch: Nov 4, 2025 • Age: 18 hours

当前状态

高度 477.9 km
速度 7.63 km/s
星下点 39.33°N, 0.94°W
发射日期 Feb 2, 2025
运行时间 0.7 years
类型 internet

技术详情

分类 Payload
质量 730.00 kg
干质量 700.00 kg
总质量 730.00 kg
长度 0.30 m
直径 4.10 m
跨度 29.00 m
形状 Box + pan
制造商 SPXS
平台类型 Starlink V2M
阶段状态 In Orbit
所有者/国家 SPXS/US

大型星座

Loading constellations...